This is the latest recevied weather packets stored in our database for station/object K0QED. If no packets are shown the sender has not sent any weather packets the latest 10 day(s).
| Time | Temp. | Humidity | Pressure | Rain* | Wind** | Luminosity | Snow |
|---|---|---|---|---|---|---|---|
| 1777921437 | 19.44° C | 21% | 1012.7 hPa | 0 mm | - | 794 W/m² | - |
| 1777921134 | 19.44° C | 20% | 1012.7 hPa | 0 mm | - | 769 W/m² | - |
| 1777920831 | 20° C | 21% | 1012.7 hPa | 0 mm | - | 744 W/m² | - |
| 1777920527 | 18.89° C | 22% | 1012.9 hPa | 0 mm | - | 652 W/m² | - |
| 1777920223 | 18.89° C | 21% | 1013 hPa | 0 mm | - | 754 W/m² | - |
| 1777919919 | 18.89° C | 20% | 1013.2 hPa | 0 mm | - | 778 W/m² | - |
| 1777919617 | 19.44° C | 22% | 1013.4 hPa | 0 mm | - | 812 W/m² | - |
| 1777919314 | 19.44° C | 22% | 1013.5 hPa | 0 mm | - | 901 W/m² | - |
| 1777919011 | 18.89° C | 25% | 1013.6 hPa | 0 mm | - | 922 W/m² | - |
| 1777918708 | 16.67° C | 24% | 1013.5 hPa | 0 mm | - | 925 W/m² | - |
| 1777918406 | 16.67° C | 26% | 1013.5 hPa | 0 mm | - | 341 W/m² | - |
| 1777918104 | 17.22° C | 24% | 1013.5 hPa | 0 mm | - | 278 W/m² | - |
| 1777917802 | 17.78° C | 26% | 1013.9 hPa | 0 mm | - | 261 W/m² | - |
| 1777917500 | 17.22° C | 25% | 1013.6 hPa | 0 mm | - | 564 W/m² | - |
| 1777917197 | 16.67° C | 28% | 1013.4 hPa | 0 mm | - | 339 W/m² | - |
| 1777916895 | 16.67° C | 29% | 1013.9 hPa | 0 mm | - | 163 W/m² | - |
| 1777916592 | 17.22° C | 27% | 1014 hPa | 0 mm | - | 157 W/m² | - |
| 1777916289 | 18.33° C | 28% | 1014 hPa | 0 mm | - | 189 W/m² | - |
| 1777915985 | 18.33° C | 26% | 1014 hPa | 0 mm | - | 425 W/m² | - |
| 1777915683 | 18.89° C | 26% | 1013.9 hPa | 0 mm | - | 547 W/m² | - |
| 1777915379 | 19.44° C | 29% | 1014.4 hPa | 0 mm | - | 656 W/m² | - |
| 1777915075 | 17.78° C | 29% | 1014.4 hPa | 0 mm | - | 851 W/m² | - |
| 1777914772 | 17.78° C | 30% | 1014.5 hPa | 0 mm | - | 741 W/m² | - |
| 1777914469 | 17.22° C | 32% | 1014.5 hPa | 0 mm | - | 716 W/m² | - |
| 1777914167 | 17.22° C | 32% | 1014.6 hPa | 0 mm | - | 516 W/m² | - |
* Rain latest hour (hover to see other rain measurements)
** Current wind speed in m/s (hover to see current wind gust speed)